User: anonymous   Login
Location: Muenchen
(48.1800°N, 11.5800°E)
Time: 03:34:40
(UTC+02:00)
Language:

ISS - Orbit

View from above orbital plane
View from above orbital plane
View from above satellite
View from above satellite

Ground track
Ground track

The orbit data is extracted from the following two-line orbital elements,

1 25544U 98067A   15241.86544446  .00015231  00000-0  22471-3 0  9995
2 25544 051.6446 076.1461 0001445 074.4731 069.4850 15.55579117959509
Epoch (UTC): 29 August 2015 20:46:14
Eccentricity: 0.0001445
inclination: 51.6446°
perigee height: 399 km
apogee height: 401 km
right ascension of ascending node: 76.1461°
argument of perigee: 74.4731°
revolutions per day: 15.55579117
mean anomaly at epoch: 69.4850°
orbit number at epoch: 95950

The dashed part of the orbit path shows where the satellite is in the earth's shadow,  

DLR